Miscellaneous Local Product
Issued by NWS North Platte, NE

Home | Current Version | Previous Version | Graphics & Text | Print | Product List | Glossary Off
Versions: 1 2 3 4 5 6 7 8 9 10 11 12 13 14 15 16 17 18 19 20 21 22 23 24 25 26 27 28 29 30 31 32 33 34 35 36 37 38 39 40 41 42 43 44 45 46 47 48 49 50

879
AXUS43 KLBF 221210
MISLBF


WESTERN AND NORTH CENTRAL NEBRASKA HOURLY WEATHER ROUNDUP
NATIONAL WEATHER SERVICE NORTH PLATTE NE
600 AM CST SUN JAN 22 2017

NOTE: "FAIR" INDICATES FEW OR NO CLOUDS BELOW 12,000 FEET WITH NO
SIGNIFICANT WEATHER AND/OR OBSTRUCTIONS TO VISIBILITY.

NOTE: STATIONS NOT REPORTING VARIABLES SUCH AS SKY/WEATHER OR
PRESSURE ARE PROVIDED BY RAWS AND APRS NETWORKS AND ARE NOT UNDER
NATIONAL WEATHER SERVICE QUALITY CONTROL.

...OBSERVATIONS IN AND NEAR THE EASTERN PANHANDLE OF NEBRASKA...

CITY           SKY/WX    TMP DP  RH WIND       PRES   REMARKS
PINE RIDGE     CLEAR     11   9  92 NW3       29.77R FOG
CHADRON        CLEAR     21  18  88 W8        29.79R WCI  11
ALLIANCE       CLEAR     19  16  88 W9        29.76R WCI   8
SIDNEY         CLOUDY    28  21  75 NW12      29.77R WCI  18
CRESCENT LAKE    N/A     24  23  94 NW6         N/A  WCI  17
$$

...OBSERVATIONS IN NORTHERN NEBRASKA AND FAR SOUTHERN SOUTH DAKOTA...

CITY           SKY/WX    TMP DP  RH WIND       PRES   REMARKS
WINNER         FAIR      24  21  88 NW7       29.74R WCI  16
VALENTINE      CLEAR     23  19  85 W6        29.74R WCI  16
THEDFORD       CLEAR     26  24  92 W7        29.74R WCI  18
AINSWORTH      CLOUDY    27  25  91 NW8       29.72R WCI  19
O`NEILL        CLEAR     27  25  94 NW9       29.71R WCI  17
ORD            CLOUDY    28  24  85 N6        29.70R WCI  22
BROKEN BOW     CLEAR     32  27  81 N8        29.71R WCI  25
VALENTINE NWR    N/A     25  22  88 NW7         N/A  WCI  17
BUTTE            N/A     25  23  90 NW7         N/A  WCI  17
HALSEY           N/A     26  24  91 NW6G13      N/A  WCI  19
SARGENT          N/A     29  24  80 CALM        N/A
CHAMBERS         N/A     28  24  86 W3          N/A
EWING            N/A     27  25  91 NW5         N/A  WCI  22
$$

...OBSERVATIONS IN SOUTHWEST NEBRASKA AND FAR NORTHEAST COLORADO...

CITY           SKY/WX    TMP DP  RH WIND       PRES   REMARKS
WRAY           FAIR      32  28  86 NW13      29.77R WCI  22
HOLYOKE        FAIR      34  28  80 NW9       29.76S WCI  26
IMPERIAL       CLOUDY    30  25  81 NW10      29.76R WCI  21
OGALLALA       CLOUDY    31  27  85 W3        29.77R
NORTH PLATTE   CLEAR     24  22  91 NW5       29.74R WCI  18
MCCOOK         CLEAR     25  24  96 W9        29.75R WCI  15
LEXINGTON      CLEAR     29  26  91 W8        29.73R WCI  21
STAPLETON        N/A     27  25  92 CALM        N/A
GOTHENBURG       N/A     28  26  90 W5          N/A  WCI  23
CALLAWAY         N/A     30  28  92 NW12        N/A  WCI  20
$$

...OBSERVATIONS IN CENTRAL LINCOLN COUNTY AREA...

CITY           SKY/WX    TMP DP  RH WIND       PRES   REMARKS
N.P. AIRPORT   CLEAR     24  22  91 NW5       29.74R WCI  18
N.P. DOWNTOWN    N/A     28  26  91 CALM        N/A
N.P. SOUTHEAST   N/A     28  25  88 CALM        N/A
N.P. HILLCREST   N/A     28  26  92 NW3         N/A
$$

...SOME OBSERVATIONS FROM AROUND THE REGION...

CITY           SKY/WX    TMP DP  RH WIND       PRES   REMARKS
LARAMIE        CLOUDY    22  12  65 W7        29.81R WCI  13
CHEYENNE       CLOUDY    28  14  55 W17G26    29.80R WCI  16
DENVER         PTCLDY    29  18  63 W9        29.81R WCI  20
AKRON          CLEAR     27  20  75 NW10      29.78R WCI  17
SCOTTSBLUFF    CLEAR     26  21  81 W10       29.80R WCI  16
RAPID CITY     CLEAR     28  19  69 W9        29.74R WCI  19
BISMARCK       CLOUDY    28  26  92 W9        29.71R WCI  19
PIERRE         CLOUDY    19  16  88 CALM      29.73R
SIOUX FALLS    CLOUDY    33  31  92 NW8       29.68R WCI  26
OMAHA          CLOUDY    32  28  85 N13       29.68R WCI  22
GRAND ISLAND   CLOUDY    27  26  96 NW8       29.71R WCI  19
KANSAS CITY    CLOUDY    44  40  85 N10       29.58R
WICHITA        CLOUDY    45  42  89 N16       29.57R
OKLAHOMA CITY  CLOUDY    47  44  90 N22G29    29.46R
DALLAS         PTCLDY    52  33  48 W12       29.39S
AMARILLO       MOCLDY    37  36  96 NW17      29.74R WCI  27
DODGE CITY     PTCLDY    33  30  88 NW13      29.70R WCI  24
HAYS           PTCLDY    35  31  85 N13       29.70R WCI  26
GOODLAND       CLOUDY    25  23  92 W6        29.75R WCI  18
$$




USA.gov is the U.S. government's official web portal to all federal, state and local government web resources and services.